| time (UTC) | temp F | wind direction | speed MPH | gust MPH | rain 1hr in | rain 24hr in | rain mn in | humidity % | barometer mb |
| 20260506212021 | 56 | 200 | 4.0 | 5.0 | 0.00 | 0.00 | 0.00 | 986.8 | |
| 20260506211515 | 56 | 249 | 3.0 | 0.0 | 0.00 | 0.00 | 0.00 | 986.8 | |
| 20260506211014 | 56 | 46 | 0.0 | 0.0 | 0.00 | 0.00 | 0.00 | 986.8 | |
| 20260506210523 | 57 | 9 | 3.0 | 0.0 | 0.00 | 0.00 | 0.00 | 986.8 | |
| 20260506210025 | 57 | 180 | 0.0 | 3.0 | 0.00 | 0.00 | 0.00 | 986.8 | |
| 20260506205534 | 57 | 192 | 0.0 | 3.0 | 0.00 | 0.00 | 0.00 | 986.8 | |
| 20260506205014 | 57 | 203 | 3.0 | 6.0 | 0.00 | 0.00 | 0.00 | 986.8 | |
| 20260506204513 | 58 | 223 | 2.0 | 5.0 | 0.00 | 0.00 | 0.00 | 986.8 | |
| 20260506204013 | 58 | 202 | 2.0 | 8.0 | 0.00 | 0.00 | 0.00 | 986.8 | |
| 20260506203518 | 58 | 243 | 4.0 | 0.0 | 0.00 | 0.00 | 0.00 | 986.8 | |
| 20260506203014 | 58 | 219 | 0.0 | 0.0 | 0.00 | 0.00 | 0.00 | 986.8 | |
| 20260506202517 | 58 | 162 | 3.0 | 4.0 | 0.00 | 0.00 | 0.00 | 986.8 | |
| 20260506202015 | 59 | 239 | 0.0 | 4.0 | 0.00 | 0.00 | 0.00 | 986.8 | |
| 20260506201513 | 59 | 193 | 3.0 | 4.0 | 0.00 | 0.00 | 0.00 | 986.8 | |
| 20260506201014 | 60 | 216 | 4.0 | 6.0 | 0.00 | 0.00 | 0.00 | 986.8 | |
| 20260506200515 | 59 | 219 | 5.0 | 5.0 | 0.00 | 0.00 | 0.00 | 986.8 | |
| 20260506200014 | 60 | 353 | 0.0 | 0.0 | 0.00 | 0.00 | 0.00 | 986.8 | |
| 20260506195514 | 61 | 222 | 7.0 | 3.0 | 0.00 | 0.00 | 0.00 | 986.8 | |
| 20260506195015 | 61 | 174 | 7.0 | 6.0 | 0.00 | 0.00 | 0.00 | 986.8 | |
| 20260506194513 | 60 | 216 | 4.0 | 8.0 | 0.00 | 0.00 | 0.00 | 986.8 | |
| 20260506194015 | 60 | 220 | 0.0 | 0.0 | 0.00 | 0.00 | 0.00 | 986.8 | |
| 20260506193520 | 60 | 235 | 4.0 | 6.0 | 0.00 | 0.00 | 0.00 | 986.8 | |
| 20260506193015 | 60 | 218 | 2.0 | 0.0 | 0.00 | 0.00 | 0.00 | 986.8 | |
| 20260506192516 | 60 | 199 | 0.0 | 2.0 | 0.00 | 0.00 | 0.00 | 986.8 | |
| 20260506192014 | 60 | 194 | 4.0 | 4.0 | 0.00 | 0.00 | 0.00 | 986.8 | |
| 20260506191516 | 60 | 206 | 7.0 | 4.0 | 0.00 | 0.00 | 0.00 | 986.8 | |
| 20260506191019 | 60 | 266 | 0.0 | 2.0 | 0.00 | 0.00 | 0.00 | 986.8 | |
| 20260506190515 | 60 | 199 | 2.0 | 3.0 | 0.00 | 0.00 | 0.00 | 986.8 | |
| 20260506190021 | 59 | 269 | 5.0 | 4.0 | 0.00 | 0.00 | 0.00 | 986.8 | |
| 20260506185516 | 58 | 345 | 3.0 | 5.0 | 0.00 | 0.00 | 0.00 | 986.8 | |
| 20260506185039 | 58 | 171 | 0.0 | 3.0 | 0.00 | 0.00 | 0.00 | 986.8 | |
| 20260506184514 | 58 | 311 | 0.0 | 0.0 | 0.00 | 0.00 | 0.00 | 986.8 | |
| 20260506184018 | 58 | 228 | 4.0 | 4.0 | 0.00 | 0.00 | 0.00 | 986.8 | |
| 20260506183543 | 58 | 250 | 4.0 | 4.0 | 0.00 | 0.00 | 0.00 | 986.8 | |
| 20260506183014 | 58 | 335 | 0.0 | 2.0 | 0.00 | 0.00 | 0.00 | 986.8 | |
| 20260506182513 | 59 | 327 | 3.0 | 0.0 | 0.00 | 0.00 | 0.00 | 986.8 | |
| 20260506182025 | 60 | 214 | 4.0 | 6.0 | 0.00 | 0.00 | 0.00 | 986.8 | |
| 20260506181535 | 59 | 226 | 5.0 | 2.0 | 0.00 | 0.00 | 0.00 | 986.8 | |
| 20260506181015 | 58 | 243 | 4.0 | 3.0 | 0.00 | 0.00 | 0.00 | 986.8 | |
| 20260506180515 | 57 | 234 | 2.0 | 3.0 | 0.00 | 0.00 | 0.00 | 986.8 | |
| 20260506180017 | 57 | 155 | 3.0 | 0.0 | 0.00 | 0.00 | 0.00 | 986.8 | |
| 20260506175536 | 57 | 68 | 2.0 | 4.0 | 0.00 | 0.00 | 0.00 | 986.8 | |
| 20260506175014 | 58 | 0 | 0.0 | 2.0 | 0.00 | 0.00 | 0.00 | 986.8 | |
| 20260506174513 | 58 | 201 | 4.0 | 4.0 | 0.00 | 0.00 | 0.00 | 986.8 | |
| 20260506174013 | 59 | 221 | 4.0 | 2.0 | 0.00 | 0.00 | 0.00 | 986.8 | |
| 20260506173514 | 59 | 235 | 3.0 | 3.0 | 0.00 | 0.00 | 0.00 | 986.8 | |
| 20260506173015 | 59 | 288 | 2.0 | 2.0 | 0.00 | 0.00 | 0.00 | 986.8 | |
| 20260506172514 | 59 | 195 | 5.0 | 5.0 | 0.00 | 0.00 | 0.00 | 986.8 | |
| 20260506172036 | 58 | 230 | 0.0 | 3.0 | 0.00 | 0.00 | 0.00 | 986.8 | |
| 20260506171540 | 57 | 176 | 5.0 | 4.0 | 0.00 | 0.00 | 0.00 | 986.8 | |
| 20260506171013 | 57 | 234 | 5.0 | 0.0 | 0.00 | 0.00 | 0.00 | 986.8 | |
| 20260506170514 | 57 | 186 | 2.0 | 3.0 | 0.00 | 0.00 | 0.00 | 986.8 | |
| 20260506170016 | 58 | 198 | 0.0 | 5.0 | 0.00 | 0.00 | 0.00 | 987.8 | |
| 20260506165515 | 59 | 213 | 4.0 | 4.0 | 0.00 | 0.00 | 0.00 | 987.8 | |
| 20260506165022 | 59 | 219 | 5.0 | 6.0 | 0.00 | 0.00 | 0.00 | 987.8 | |
| 20260506164515 | 59 | 184 | 3.0 | 3.0 | 0.00 | 0.00 | 0.00 | 986.8 | |
| 20260506164015 | 60 | 211 | 2.0 | 0.0 | 0.00 | 0.00 | 0.00 | 986.8 | |
| 20260506163513 | 59 | 335 | 4.0 | 4.0 | 0.00 | 0.00 | 0.00 | 986.8 | |
| 20260506163014 | 59 | 222 | 3.0 | 8.0 | 0.00 | 0.00 | 0.00 | 986.8 | |
| 20260506162513 | 59 | 160 | 0.0 | 8.0 | 0.00 | 0.00 | 0.00 | 986.8 | |
| 20260506162017 | 59 | 261 | 3.0 | 3.0 | 0.00 | 0.00 | 0.00 | 986.8 | |
| 20260506161514 | 59 | 267 | 3.0 | 2.0 | 0.00 | 0.00 | 0.00 | 986.8 | |
| 20260506161013 | 58 | 208 | 2.0 | 0.0 | 0.00 | 0.00 | 0.00 | 986.8 | |
| 20260506160513 | 57 | 198 | 2.0 | 3.0 | 0.00 | 0.00 | 0.00 | 986.8 | |
| 20260506160015 | 57 | 227 | 4.0 | 5.0 | 0.00 | 0.00 | 0.00 | 986.8 | |
| 20260506155515 | 57 | 258 | 5.0 | 0.0 | 0.00 | 0.00 | 0.00 | 986.8 | |
| 20260506155015 | 57 | 192 | 5.0 | 6.0 | 0.00 | 0.00 | 0.00 | 986.8 | |
| 20260506154514 | 57 | 79 | 0.0 | 3.0 | 0.00 | 0.00 | 0.00 | 986.8 | |
| 20260506154014 | 57 | 214 | 3.0 | 3.0 | 0.00 | 0.00 | 0.00 | 986.8 | |
| 20260506153514 | 57 | 253 | 5.0 | 6.0 | 0.00 | 0.00 | 0.00 | 986.8 | |
| 20260506153014 | 56 | 289 | 2.0 | 0.0 | 0.00 | 0.00 | 0.00 | 986.8 | |
| 20260506152525 | 56 | 209 | 4.0 | 0.0 | 0.00 | 0.00 | 0.00 | 986.8 | |
| 20260506152019 | 56 | 203 | 3.0 | 9.0 | 0.00 | 0.00 | 0.00 | 986.8 | |
| 20260506151540 | 56 | 204 | 2.0 | 6.0 | 0.00 | 0.00 | 0.00 | 986.8 | |
| 20260506151016 | 56 | 336 | 5.0 | 4.0 | 0.00 | 0.00 | 0.00 | 986.8 | |
| 20260506150514 | 56 | 207 | 4.0 | 4.0 | 0.00 | 0.00 | 0.00 | 986.8 | |
| 20260506150020 | 56 | 182 | 0.0 | 0.0 | 0.00 | 0.00 | 0.00 | 986.8 | |
| 20260506145520 | 56 | 225 | 4.0 | 3.0 | 0.00 | 0.00 | 0.00 | 986.8 | |
| 20260506145014 | 55 | 230 | 4.0 | 6.0 | 0.00 | 0.00 | 0.00 | 986.8 | |
| 20260506144520 | 55 | 304 | 7.0 | 3.0 | 0.00 | 0.00 | 0.00 | 986.8 | |
| 20260506144025 | 55 | 222 | 6.0 | 4.0 | 0.00 | 0.00 | 0.00 | 986.8 | |
| 20260506143513 | 54 | 190 | 0.0 | 3.0 | 0.00 | 0.00 | 0.00 | 986.8 | |
| 20260506143043 | 54 | 226 | 0.0 | 4.0 | 0.00 | 0.00 | 0.00 | 986.8 | |
| 20260506142514 | 54 | 226 | 2.0 | 0.0 | 0.00 | 0.00 | 0.00 | 986.8 | |
| 20260506142014 | 54 | 234 | 3.0 | 4.0 | 0.00 | 0.00 | 0.00 | 986.8 | |
| 20260506141514 | 54 | 213 | 0.0 | 4.0 | 0.00 | 0.00 | 0.00 | 986.8 | |
| 20260506141034 | 54 | 180 | 0.0 | 4.0 | 0.00 | 0.00 | 0.00 | 986.8 | |
| 20260506140519 | 55 | 235 | 3.0 | 4.0 | 0.00 | 0.00 | 0.00 | 986.8 | |
| 20260506140013 | 54 | 235 | 4.0 | 2.0 | 0.00 | 0.00 | 0.00 | 986.8 | |
| 20260506135513 | 54 | 225 | 3.0 | 0.0 | 0.00 | 0.00 | 0.00 | 986.8 | |
| 20260506135013 | 53 | 229 | 0.0 | 2.0 | 0.00 | 0.00 | 0.00 | 986.8 | |
| 20260506134514 | 53 | 209 | 0.0 | 0.0 | 0.00 | 0.00 | 0.00 | 985.8 | |
| 20260506134014 | 52 | 220 | 0.0 | 3.0 | 0.00 | 0.00 | 0.00 | 985.8 | |
| 20260506133535 | 51 | 221 | 0.0 | 0.0 | 0.00 | 0.00 | 0.00 | 985.8 | |
| 20260506133020 | 51 | 240 | 0.0 | 0.0 | 0.00 | 0.00 | 0.00 | 986.8 | |
| 20260506132513 | 50 | 217 | 0.0 | 0.0 | 0.00 | 0.00 | 0.00 | 986.8 | |
| 20260506132035 | 50 | 191 | 0.0 | 0.0 | 0.00 | 0.00 | 0.00 | 986.8 | |
| 20260506131514 | 50 | 207 | 0.0 | 0.0 | 0.00 | 0.00 | 0.00 | 985.8 | |
| 20260506131020 | 50 | 223 | 0.0 | 0.0 | 0.00 | 0.00 | 0.00 | 985.8 | |
| 20260506130516 | 49 | 250 | 3.0 | 4.0 | 0.00 | 0.00 | 0.00 | 985.8 | |
| 20260506130013 | 49 | 253 | 0.0 | 0.0 | 0.00 | 0.00 | 0.00 | 985.8 | |
| 20260506125522 | 48 | 257 | 0.0 | 0.0 | 0.00 | 0.00 | 0.00 | 985.8 | |
| 20260506125016 | 47 | 292 | 0.0 | 0.0 | 0.00 | 0.00 | 0.00 | 985.8 | |
| 20260506124514 | 46 | 332 | 0.0 | 0.0 | 0.00 | 0.00 | 0.00 | 985.8 | |
| 20260506124015 | 45 | 345 | 0.0 | 0.0 | 0.00 | 0.00 | 0.00 | 985.8 | |
| 20260506123518 | 45 | 345 | 0.0 | 0.0 | 0.00 | 0.00 | 0.00 | 985.8 | |
| 20260506123019 | 44 | 353 | 0.0 | 0.0 | 0.00 | 0.00 | 0.00 | 985.8 | |
| 20260506122534 | 43 | 353 | 0.0 | 0.0 | 0.00 | 0.00 | 0.00 | 985.8 | |
| 20260506122013 | 43 | 353 | 0.0 | 0.0 | 0.00 | 0.00 | 0.00 | 985.8 | |
| 20260506121514 | 42 | 353 | 0.0 | 0.0 | 0.00 | 0.00 | 0.00 | 984.8 | |
| 20260506121014 | 42 | 353 | 0.0 | 0.0 | 0.00 | 0.00 | 0.00 | 984.8 | |
| 20260506120514 | 41 | 353 | 0.0 | 0.0 | 0.00 | 0.00 | 0.00 | 984.8 | |
| 20260506120021 | 40 | 353 | 0.0 | 0.0 | 0.00 | 0.00 | 0.00 | 984.8 | |
| 20260506115518 | 39 | 353 | 0.0 | 0.0 | 0.00 | 0.00 | 0.00 | 984.8 | |
| 20260506115018 | 38 | 353 | 0.0 | 0.0 | 0.00 | 0.00 | 0.00 | 984.8 | |
| 20260506114513 | 37 | 353 | 0.0 | 0.0 | 0.00 | 0.00 | 0.00 | 984.8 | |
| 20260506114016 | 37 | 353 | 0.0 | 0.0 | 0.00 | 0.00 | 0.00 | 984.8 | |
| 20260506113522 | 36 | 353 | 0.0 | 0.0 | 0.00 | 0.00 | 0.00 | 984.8 | |
| 20260506113025 | 36 | 353 | 0.0 | 0.0 | 0.00 | 0.00 | 0.00 | 984.8 | |
| 20260506112513 | 36 | 353 | 0.0 | 0.0 | 0.00 | 0.00 | 0.00 | 984.8 | |
| 20260506112018 | 36 | 353 | 0.0 | 0.0 | 0.00 | 0.00 | 0.00 | 984.8 | |
| 20260506111514 | 35 | 353 | 0.0 | 0.0 | 0.00 | 0.00 | 0.00 | 984.8 | |
| 20260506111018 | 35 | 353 | 0.0 | 0.0 | 0.00 | 0.00 | 0.00 | 984.8 | |
| 20260506110514 | 35 | 353 | 0.0 | 0.0 | 0.00 | 0.00 | 0.00 | 984.8 | |
| 20260506110024 | 35 | 353 | 0.0 | 0.0 | 0.00 | 0.00 | 0.00 | 983.8 | |
| 20260506105514 | 35 | 353 | 0.0 | 0.0 | 0.00 | 0.00 | 0.00 | 983.8 | |
| 20260506105037 | 36 | 353 | 0.0 | 0.0 | 0.00 | 0.00 | 0.00 | 983.8 | |
| 20260506104525 | 36 | 353 | 0.0 | 0.0 | 0.00 | 0.00 | 0.00 | 983.8 | |
| 20260506104015 | 36 | 353 | 0.0 | 0.0 | 0.00 | 0.00 | 0.00 | 983.8 | |
| 20260506103521 | 36 | 353 | 0.0 | 0.0 | 0.00 | 0.00 | 0.00 | 983.8 | |
| 20260506103025 | 36 | 353 | 0.0 | 0.0 | 0.00 | 0.00 | 0.00 | 983.8 | |
| 20260506102514 | 36 | 353 | 0.0 | 0.0 | 0.00 | 0.00 | 0.00 | 983.8 | |
| 20260506102014 | 36 | 353 | 0.0 | 0.0 | 0.00 | 0.00 | 0.00 | 983.8 | |
| 20260506101514 | 36 | 353 | 0.0 | 0.0 | 0.00 | 0.00 | 0.00 | 983.8 | |
| 20260506101020 | 36 | 353 | 0.0 | 0.0 | 0.00 | 0.00 | 0.00 | 983.8 | |
| 20260506100514 | 36 | 353 | 0.0 | 0.0 | 0.00 | 0.00 | 0.00 | 983.8 | |
| 20260506100025 | 36 | 353 | 0.0 | 0.0 | 0.00 | 0.00 | 0.00 | 983.8 | |
| 20260506095535 | 36 | 353 | 0.0 | 0.0 | 0.00 | 0.00 | 0.00 | 983.8 | |
| 20260506095035 | 36 | 353 | 0.0 | 0.0 | 0.00 | 0.00 | 0.00 | 983.8 | |
| 20260506094513 | 37 | 353 | 0.0 | 0.0 | 0.00 | 0.00 | 0.00 | 984.8 | |
| 20260506094016 | 37 | 353 | 0.0 | 0.0 | 0.00 | 0.00 | 0.00 | 984.8 | |
| 20260506093513 | 37 | 353 | 0.0 | 0.0 | 0.00 | 0.00 | 0.00 | 984.8 | |
| 20260506093014 | 37 | 353 | 0.0 | 0.0 | 0.00 | 0.00 | 0.00 | 983.8 | |
| 20260506092522 | 37 | 353 | 0.0 | 0.0 | 0.00 | 0.00 | 0.00 | 983.8 | |
| 20260506092014 | 37 | 353 | 0.0 | 0.0 | 0.00 | 0.00 | 0.00 | 983.8 | |
| 20260506091514 | 37 | 353 | 0.0 | 0.0 | 0.00 | 0.00 | 0.00 | 984.8 | |
| 20260506091014 | 37 | 353 | 0.0 | 0.0 | 0.00 | 0.00 | 0.00 | 984.8 | |
| 20260506090513 | 37 | 353 | 0.0 | 0.0 | 0.00 | 0.00 | 0.00 | 984.8 | |
| 20260506090018 | 37 | 353 | 0.0 | 0.0 | 0.00 | 0.00 | 0.00 | 983.8 | |
| 20260506085513 | 38 | 353 | 0.0 | 0.0 | 0.00 | 0.00 | 0.00 | 983.8 | |
| 20260506085015 | 38 | 353 | 0.0 | 0.0 | 0.00 | 0.00 | 0.00 | 983.8 | |
| 20260506084515 | 38 | 353 | 0.0 | 0.0 | 0.00 | 0.00 | 0.00 | 983.8 | |
| 20260506084015 | 38 | 353 | 0.0 | 0.0 | 0.00 | 0.00 | 0.00 | 983.8 | |
| 20260506083514 | 38 | 353 | 0.0 | 0.0 | 0.00 | 0.00 | 0.00 | 983.8 | |
| 20260506083018 | 38 | 353 | 0.0 | 0.0 | 0.00 | 0.00 | 0.00 | 983.8 | |
| 20260506082534 | 39 | 353 | 0.0 | 0.0 | 0.00 | 0.00 | 0.00 | 983.8 | |
| 20260506082018 | 39 | 353 | 0.0 | 0.0 | 0.00 | 0.00 | 0.00 | 983.8 | |
| 20260506081514 | 39 | 353 | 0.0 | 0.0 | 0.00 | 0.00 | 0.00 | 984.8 | |
| 20260506081015 | 39 | 353 | 0.0 | 0.0 | 0.00 | 0.00 | 0.00 | 984.8 | |
| 20260506080514 | 39 | 353 | 0.0 | 0.0 | 0.00 | 0.00 | 0.00 | 984.8 | |
| 20260506073514 | 41 | 353 | 0.0 | 0.0 | 0.00 | 0.00 | 0.00 | 984.8 | |
| 20260506073014 | 42 | 353 | 0.0 | 0.0 | 0.00 | 0.00 | 0.00 | 983.8 | |
| 20260506072514 | 42 | 353 | 0.0 | 0.0 | 0.00 | 0.00 | 0.00 | 983.8 | |
| 20260506072034 | 42 | 353 | 0.0 | 0.0 | 0.00 | 0.00 | 0.00 | 983.8 | |
| 20260506071514 | 43 | 353 | 0.0 | 0.0 | 0.00 | 0.00 | 0.00 | 983.8 | |
| 20260506071018 | 43 | 353 | 0.0 | 0.0 | 0.00 | 0.00 | 0.00 | 983.8 | |
| 20260506070514 | 43 | 353 | 0.0 | 0.0 | 0.00 | 0.00 | 0.00 | 983.8 | |
| 20260506062514 | 44 | 353 | 0.0 | 0.0 | 0.00 | 0.00 | 0.00 | 983.8 | |
| 20260506062034 | 44 | 353 | 0.0 | 0.0 | 0.00 | 0.00 | 0.00 | 983.8 | |
| 20260506061513 | 44 | 353 | 0.0 | 0.0 | 0.00 | 0.00 | 0.00 | 984.8 | |
| 20260506061018 | 45 | 353 | 0.0 | 0.0 | 0.00 | 0.00 | 0.00 | 984.8 | |
| 20260506060516 | 45 | 353 | 0.0 | 0.0 | 0.00 | 0.00 | 0.00 | 984.8 | |
| 20260506051013 | 47 | 13 | 0.0 | 0.0 | 0.00 | 0.00 | 0.00 | 983.8 | |
| 20260506050513 | 47 | 13 | 0.0 | 0.0 | 0.00 | 0.00 | 0.00 | 983.8 | |
| 20260506045014 | 47 | 329 | 0.0 | 0.0 | 0.00 | 0.00 | 0.00 | 983.8 | |
| 20260506044524 | 47 | 329 | 0.0 | 0.0 | 0.00 | 0.00 | 0.00 | 983.8 | |
| 20260506044037 | 47 | 329 | 0.0 | 0.0 | 0.00 | 0.00 | 0.00 | 983.8 | |
| 20260506043514 | 47 | 329 | 0.0 | 0.0 | 0.00 | 0.00 | 0.00 | 983.8 | |
| 20260506043014 | 47 | 329 | 0.0 | 0.0 | 0.00 | 0.00 | 0.00 | 983.8 | |
| 20260506042515 | 48 | 329 | 0.0 | 0.0 | 0.00 | 0.00 | 0.00 | 983.8 | |
| 20260506042014 | 48 | 329 | 0.0 | 0.0 | 0.00 | 0.00 | 0.00 | 983.8 | |
| 20260506041517 | 48 | 329 | 0.0 | 0.0 | 0.00 | 0.00 | 0.00 | 983.8 | |
| 20260506041014 | 48 | 329 | 0.0 | 0.0 | 0.00 | 0.00 | 0.00 | 983.8 | |
| 20260506040516 | 48 | 329 | 0.0 | 0.0 | 0.00 | 0.00 | 0.00 | 983.8 | |
| 20260506040023 | 49 | 329 | 0.0 | 0.0 | 0.00 | 0.00 | 0.00 | 983.8 | |
| 20260506035514 | 49 | 329 | 0.0 | 0.0 | 0.00 | 0.00 | 0.00 | 983.8 | |
| 20260506035034 | 49 | 329 | 0.0 | 0.0 | 0.00 | 0.00 | 0.00 | 983.8 | |
| 20260506034516 | 49 | 329 | 0.0 | 0.0 | 0.00 | 0.00 | 0.00 | 982.8 | |
| 20260506034018 | 49 | 329 | 0.0 | 0.0 | 0.00 | 0.00 | 0.00 | 982.8 | |
| 20260506033524 | 49 | 46 | 0.0 | 0.0 | 0.00 | 0.00 | 0.00 | 982.8 | |
| 20260506033018 | 49 | 46 | 0.0 | 0.0 | 0.00 | 0.00 | 0.00 | 982.8 | |
| 20260506032541 | 49 | 308 | 0.0 | 0.0 | 0.00 | 0.00 | 0.00 | 982.8 | |
| 20260506032015 | 49 | 337 | 0.0 | 0.0 | 0.00 | 0.00 | 0.00 | 982.8 | |
| 20260506031514 | 49 | 3 | 0.0 | 0.0 | 0.00 | 0.00 | 0.00 | 982.8 | |
| 20260506031014 | 49 | 6 | 0.0 | 0.0 | 0.00 | 0.00 | 0.00 | 982.8 | |
| 20260506030535 | 49 | 6 | 0.0 | 0.0 | 0.00 | 0.00 | 0.00 | 982.8 | |
| 20260506030018 | 49 | 7 | 0.0 | 0.0 | 0.00 | 0.00 | 0.00 | 982.8 | |
| 20260506025514 | 49 | 341 | 0.0 | 0.0 | 0.00 | 0.00 | 0.00 | 982.8 | |
| 20260506025014 | 49 | 341 | 0.0 | 0.0 | 0.00 | 0.00 | 0.00 | 982.8 | |
| 20260506024513 | 49 | 341 | 0.0 | 0.0 | 0.00 | 0.00 | 0.00 | 982.8 | |
| 20260506024014 | 49 | 353 | 0.0 | 0.0 | 0.00 | 0.00 | 0.00 | 982.8 | |
| 20260506023514 | 49 | 353 | 0.0 | 0.0 | 0.00 | 0.00 | 0.00 | 982.8 | |
| 20260506023041 | 50 | 353 | 0.0 | 0.0 | 0.00 | 0.00 | 0.00 | 982.8 | |
| 20260506022514 | 50 | 353 | 0.0 | 0.0 | 0.00 | 0.00 | 0.00 | 982.8 | |
| 20260506022016 | 50 | 353 | 0.0 | 0.0 | 0.00 | 0.00 | 0.00 | 982.8 | |
| 20260506021541 | 50 | 353 | 0.0 | 0.0 | 0.00 | 0.00 | 0.00 | 982.8 | |
| 20260506021035 | 50 | 353 | 0.0 | 0.0 | 0.00 | 0.00 | 0.00 | 982.8 | |
| 20260506020534 | 50 | 353 | 0.0 | 0.0 | 0.00 | 0.00 | 0.00 | 982.8 | |
| 20260506020015 | 50 | 353 | 0.0 | 0.0 | 0.00 | 0.00 | 0.00 | 981.8 | |
| 20260506015514 | 50 | 353 | 0.0 | 0.0 | 0.00 | 0.00 | 0.00 | 981.8 | |
| 20260506015018 | 50 | 353 | 0.0 | 0.0 | 0.00 | 0.00 | 0.00 | 981.8 | |
| 20260506014517 | 50 | 353 | 0.0 | 0.0 | 0.00 | 0.00 | 0.00 | 981.8 | |
| 20260506014013 | 51 | 353 | 0.0 | 0.0 | 0.00 | 0.00 | 0.00 | 981.8 | |
| 20260506013514 | 51 | 353 | 0.0 | 0.0 | 0.00 | 0.00 | 0.00 | 981.8 | |
| 20260506013014 | 51 | 353 | 0.0 | 0.0 | 0.00 | 0.00 | 0.00 | 981.8 | |
| 20260506012513 | 51 | 353 | 0.0 | 0.0 | 0.00 | 0.00 | 0.00 | 981.8 | |
| 20260506012013 | 52 | 353 | 0.0 | 0.0 | 0.00 | 0.00 | 0.00 | 981.8 | |
| 20260506011513 | 52 | 353 | 0.0 | 0.0 | 0.00 | 0.00 | 0.00 | 981.8 | |
| 20260506011014 | 52 | 353 | 0.0 | 0.0 | 0.00 | 0.00 | 0.00 | 981.8 | |
| 20260506010521 | 52 | 353 | 0.0 | 0.0 | 0.00 | 0.00 | 0.00 | 981.8 | |
| 20260506010035 | 53 | 353 | 0.0 | 0.0 | 0.00 | 0.00 | 0.00 | 981.8 | |
| 20260506005514 | 53 | 353 | 0.0 | 0.0 | 0.00 | 0.00 | 0.00 | 981.8 | |
| 20260506005025 | 53 | 353 | 0.0 | 0.0 | 0.00 | 0.00 | 0.00 | 981.8 | |
| 20260506004518 | 53 | 333 | 0.0 | 0.0 | 0.00 | 0.00 | 0.00 | 981.8 | |
| 20260506004034 | 53 | 353 | 0.0 | 0.0 | 0.00 | 0.00 | 0.00 | 981.8 | |
| 20260506003516 | 53 | 269 | 0.0 | 0.0 | 0.00 | 0.00 | 0.00 | 981.8 | |
| 20260506003015 | 54 | 333 | 0.0 | 0.0 | 0.00 | 0.00 | 0.00 | 981.8 | |
| 20260506002535 | 54 | 312 | 0.0 | 0.0 | 0.00 | 0.00 | 0.00 | 981.8 | |
| 20260506002042 | 54 | 309 | 2.0 | 0.0 | 0.00 | 0.00 | 0.00 | 981.8 | |
| 20260506001514 | 54 | 331 | 0.0 | 0.0 | 0.00 | 0.00 | 0.00 | 981.8 | |
| 20260506001018 | 54 | 233 | 0.0 | 0.0 | 0.00 | 0.00 | 0.00 | 981.8 | |
| 20260506000519 | 54 | 334 | 3.0 | 0.0 | 0.00 | 0.00 | 0.00 | 981.8 | |
| 20260506000023 | 54 | 327 | 0.0 | 0.0 | 0.00 | 0.00 | 0.00 | 981.8 | |
| 20260505235522 | 54 | 341 | 0.0 | 0.0 | 0.00 | 0.00 | 0.00 | 981.8 | |
| 20260505235014 | 54 | 342 | 0.0 | 3.0 | 0.00 | 0.00 | 0.00 | 981.8 | |
| 20260505234514 | 54 | 228 | 0.0 | 0.0 | 0.00 | 0.00 | 0.00 | 981.8 | |
| 20260505234015 | 54 | 258 | 0.0 | 0.0 | 0.00 | 0.00 | 0.00 | 981.8 | |
| 20260505233536 | 54 | 245 | 0.0 | 0.0 | 0.00 | 0.00 | 0.00 | 981.8 | |
| 20260505233024 | 55 | 232 | 0.0 | 0.0 | 0.00 | 0.00 | 0.00 | 981.8 | |
| 20260505232516 | 55 | 344 | 0.0 | 0.0 | 0.00 | 0.00 | 0.00 | 981.8 | |
| 20260505232013 | 55 | 221 | 0.0 | 0.0 | 0.00 | 0.00 | 0.00 | 981.8 | |
| 20260505231514 | 55 | 196 | 0.0 | 0.0 | 0.00 | 0.00 | 0.00 | 981.8 | |
| 20260505231013 | 55 | 253 | 0.0 | 0.0 | 0.00 | 0.00 | 0.00 | 981.8 | |
| 20260505230535 | 55 | 248 | 0.0 | 0.0 | 0.00 | 0.00 | 0.00 | 981.8 | |
| 20260505230018 | 55 | 243 | 0.0 | 0.0 | 0.00 | 0.00 | 0.00 | 982.8 | |
| 20260505225514 | 55 | 290 | 0.0 | 0.0 | 0.00 | 0.00 | 0.00 | 982.8 | |
| 20260505225016 | 55 | 337 | 0.0 | 3.0 | 0.00 | 0.00 | 0.00 | 982.8 | |
| 20260505224513 | 56 | 198 | 0.0 | 0.0 | 0.00 | 0.00 | 0.00 | 981.8 | |
| 20260505224015 | 56 | 331 | 3.0 | 0.0 | 0.00 | 0.00 | 0.00 | 981.8 | |
| 20260505223513 | 56 | 334 | 4.0 | 4.0 | 0.00 | 0.00 | 0.00 | 981.8 | |
| 20260505223014 | 56 | 295 | 0.0 | 0.0 | 0.00 | 0.00 | 0.00 | 981.8 | |
| 20260505222513 | 56 | 184 | 0.0 | 0.0 | 0.00 | 0.00 | 0.00 | 981.8 | |
| 20260505222020 | 56 | 303 | 0.0 | 0.0 | 0.00 | 0.00 | 0.00 | 981.8 | |
| 20260505221514 | 56 | 105 | 2.0 | 0.0 | 0.00 | 0.00 | 0.00 | 981.8 | |
| 20260505221014 | 56 | 345 | 0.0 | 0.0 | 0.00 | 0.00 | 0.00 | 981.8 | |
| 20260505220514 | 56 | 154 | 0.0 | 4.0 | 0.00 | 0.00 | 0.00 | 981.8 | |
| 20260505220015 | 57 | 279 | 0.0 | 0.0 | 0.00 | 0.00 | 0.00 | 981.8 | |
| 20260505215514 | 57 | 264 | 3.0 | 2.0 | 0.00 | 0.00 | 0.00 | 981.8 | |
| 20260505215013 | 57 | 331 | 0.0 | 5.0 | 0.00 | 0.00 | 0.00 | 981.8 | |
| 20260505214514 | 57 | 326 | 3.0 | 5.0 | 0.00 | 0.00 | 0.00 | 981.8 | |
| 20260505214016 | 57 | 204 | 0.0 | 0.0 | 0.00 | 0.00 | 0.00 | 981.8 | |
| 20260505213522 | 57 | 263 | 2.0 | 4.0 | 0.00 | 0.00 | 0.00 | 981.8 | |
| 20260505213021 | 57 | 338 | 3.0 | 0.0 | 0.00 | 0.00 | 0.00 | 981.8 | |
| 20260505212515 | 57 | 8 | 0.0 | 0.0 | 0.00 | 0.00 | 0.00 | 981.8 | |
| 20260505212035 | 58 | 276 | 0.0 | 0.0 | 0.00 | 0.00 | 0.00 | 981.8 |